When you browse on this site, cookies collect data to enhance your experience and personalize the content and advertising you see.
Visit our Privacy Policy to learn more. By continuing to use the site, you agree to this use of cookies and data.
  • In Lithuania
  • List of Countries
  • For 7 days
  • Water Temperature
  • Satellite Maps
  • Weather Map
  • Weather Widgets
  • user-avatar
    Login

    Hourly Weather Toronto

    Today, 27 May, Monday

    Time Temperature Precipitation Wind Pressure Humidity
    00:00 +13°C° 0 mm 4 mps 751 mmHg 68%
    01:00 +12°C° 0 mm 4 mps 751 mmHg 68%
    02:00 +12°C° 0 mm 3 mps 751 mmHg 70%
    03:00 +12°C° 0 mm 3 mps 751 mmHg 71%
    04:00 +13°C° 0 mm 2 mps 751 mmHg 73%
    05:00 +14°C° 0 mm 2 mps 751 mmHg 72%
    06:00 +14°C° 0 mm 1 mps 752 mmHg 70%
    07:00 +15°C° 0 mm 1 mps 752 mmHg 69%
    08:00 +18°C° 0 mm 1 mps 752 mmHg 64%
    09:00 +20°C° 0 mm 1 mps 752 mmHg 59%
    10:00 +22°C° 0 mm 1 mps 752 mmHg 54%
    11:00 +23°C° 0 mm 1 mps 752 mmHg 52%
    12:00 +24°C° 0 mm 2 mps 752 mmHg 49%
    13:00 +25°C° 0 mm 2 mps 751 mmHg 46%
    14:00 +25°C° 0.1 mm 2 mps 751 mmHg 46%
    15:00 +25°C° 0.1 mm 2 mps 751 mmHg 46%
    16:00 +25°C° 0.1 mm 2 mps 751 mmHg 46%
    17:00 +23°C° 0 mm 2 mps 751 mmHg 50%
    18:00 +21°C° 0 mm 2 mps 750 mmHg 55%
    19:00 +19°C° 0 mm 3 mps 750 mmHg 59%
    20:00 +18°C° 0.2 mm 3 mps 749 mmHg 65%
    21:00 +17°C° 0.2 mm 3 mps 749 mmHg 70%
    22:00 +15°C° 0.2 mm 4 mps 749 mmHg 75%
    23:00 +14°C° 0.9 mm 4 mps 749 mmHg 78%

    Tomorrow, 28 May, Tuesday

    Time Temperature Precipitation Wind Pressure Humidity
    00:00 +14°C° 0.9 mm 4 mps 748 mmHg 81%
    01:00 +14°C° 0.9 mm 4 mps 748 mmHg 84%
    02:00 +13°C° 1.1 mm 5 mps 747 mmHg 85%
    03:00 +13°C° 1.1 mm 6 mps 747 mmHg 86%
    04:00 +12°C° 1.1 mm 7 mps 746 mmHg 87%
    05:00 +12°C° 1.3 mm 7 mps 746 mmHg 87%
    06:00 +11°C° 1.3 mm 8 mps 745 mmHg 87%
    07:00 +11°C° 1.3 mm 8 mps 745 mmHg 87%
    08:00 +10°C° 0.2 mm 8 mps 745 mmHg 86%
    09:00 +10°C° 0.2 mm 8 mps 745 mmHg 86%
    10:00 +10°C° 0.2 mm 8 mps 745 mmHg 86%
    11:00 +10°C° 0.2 mm 7 mps 745 mmHg 85%
    12:00 +10°C° 0.2 mm 6 mps 745 mmHg 85%
    13:00 +10°C° 0.2 mm 6 mps 745 mmHg 85%
    14:00 +12°C° 0 mm 5 mps 745 mmHg 84%
    15:00 +12°C° 0 mm 5 mps 745 mmHg 83%
    16:00 +13°C° 0 mm 4 mps 744 mmHg 82%
    17:00 +13°C° 0 mm 4 mps 744 mmHg 82%
    18:00 +13°C° 0 mm 3 mps 744 mmHg 83%
    19:00 +13°C° 0 mm 3 mps 745 mmHg 83%
    20:00 +13°C° 0 mm 3 mps 745 mmHg 85%
    21:00 +13°C° 0 mm 2 mps 745 mmHg 87%
    22:00 +13°C° 0 mm 2 mps 745 mmHg 89%
    23:00 +13°C° 0 mm 2 mps 745 mmHg 89%

    Day after tomorrow, 29 May, Wednesday

    Time Temperature Precipitation Wind Pressure Humidity
    00:00 +13°C° 0 mm 2 mps 746 mmHg 89%
    01:00 +12°C° 0 mm 2 mps 746 mmHg 90%
    02:00 +12°C° 0 mm 2 mps 746 mmHg 90%
    03:00 +12°C° 0 mm 1 mps 745 mmHg 90%
    04:00 +12°C° 0 mm 1 mps 745 mmHg 90%
    05:00 +13°C° 0 mm 2 mps 745 mmHg 88%
    06:00 +13°C° 0 mm 2 mps 745 mmHg 86%
    07:00 +13°C° 0 mm 3 mps 745 mmHg 84%
    08:00 +14°C° 0 mm 3 mps 745 mmHg 80%
    09:00 +16°C° 0 mm 3 mps 745 mmHg 76%
    10:00 +17°C° 0 mm 3 mps 745 mmHg 72%
    11:00 +16°C° 0.3 mm 3 mps 745 mmHg 76%
    12:00 +14°C° 0.3 mm 3 mps 745 mmHg 79%
    13:00 +14°C° 0.3 mm 3 mps 745 mmHg 83%
    14:00 +15°C° 1.9 mm 2 mps 744 mmHg 85%
    15:00 +14°C° 1.9 mm 2 mps 744 mmHg 86%
    16:00 +14°C° 1.9 mm 2 mps 744 mmHg 88%
    17:00 +15°C° 0 mm 2 mps 744 mmHg 87%
    18:00 +15°C° 0 mm 2 mps 744 mmHg 85%
    19:00 +15°C° 0 mm 1 mps 744 mmHg 84%
    20:00 +15°C° 0 mm 1 mps 744 mmHg 86%
    21:00 +14°C° 0 mm 1 mps 744 mmHg 88%
    22:00 +13°C° 0 mm 1 mps 744 mmHg 90%
    23:00 +13°C° 0 mm 1 mps 744 mmHg 90%

    30 May, Thursday

    Time Temperature Precipitation Wind Pressure Humidity
    00:00 +13°C° 0 mm 1 mps 744 mmHg 90%
    01:00 +13°C° 0 mm 1 mps 744 mmHg 90%
    02:00 +13°C° 0 mm 1 mps 744 mmHg 90%
    03:00 +12°C° 0 mm 1 mps 744 mmHg 90%
    04:00 +12°C° 0 mm 1 mps 744 mmHg 91%
    05:00 +13°C° 0 mm 1 mps 744 mmHg 88%
    06:00 +14°C° 0 mm 1 mps 745 mmHg 86%
    07:00 +15°C° 0 mm 1 mps 745 mmHg 84%
    08:00 +15°C° 0 mm 0 mps 745 mmHg 77%
    09:00 +17°C° 0 mm 0 mps 745 mmHg 71%
    10:00 +19°C° 0 mm 0 mps 746 mmHg 64%
    11:00 +23°C° 0 mm 1 mps 745 mmHg 59%
    12:00 +24°C° 0 mm 1 mps 745 mmHg 54%
    13:00 +26°C° 0 mm 1 mps 745 mmHg 50%
    14:00 +25°C° 0 mm 2 mps 744 mmHg 52%
    15:00 +25°C° 0 mm 2 mps 744 mmHg 54%
    16:00 +25°C° 0 mm 3 mps 743 mmHg 57%
    17:00 +22°C° 0.2 mm 3 mps 743 mmHg 66%
    18:00 +21°C° 0.2 mm 3 mps 743 mmHg 75%
    19:00 +20°C° 0.2 mm 4 mps 743 mmHg 85%
    20:00 +20°C° 0.6 mm 3 mps 742 mmHg 86%
    21:00 +19°C° 0.6 mm 3 mps 742 mmHg 87%
    22:00 +18°C° 0.6 mm 2 mps 741 mmHg 88%
    23:00 +18°C° 1.4 mm 2 mps 740 mmHg 89%

    31 May, Friday

    Time Temperature Precipitation Wind Pressure Humidity
    00:00 +18°C° 1.4 mm 2 mps 740 mmHg 90%
    01:00 +18°C° 1.4 mm 2 mps 739 mmHg 91%
    02:00 +17°C° 0.3 mm 2 mps 739 mmHg 90%
    03:00 +17°C° 0.3 mm 3 mps 739 mmHg 89%
    04:00 +17°C° 0.3 mm 3 mps 739 mmHg 88%
    05:00 +16°C° 0.5 mm 3 mps 739 mmHg 88%
    06:00 +15°C° 0.5 mm 4 mps 740 mmHg 88%
    07:00 +14°C° 0.5 mm 4 mps 741 mmHg 87%
    08:00 +17°C° 0.1 mm 4 mps 741 mmHg 81%
    09:00 +18°C° 0.1 mm 3 mps 742 mmHg 74%
    10:00 +19°C° 0.1 mm 3 mps 742 mmHg 68%
    11:00 +20°C° 0 mm 3 mps 743 mmHg 64%
    12:00 +21°C° 0 mm 3 mps 743 mmHg 59%
    13:00 +22°C° 0 mm 3 mps 744 mmHg 55%
    14:00 +22°C° 0 mm 4 mps 744 mmHg 51%
    15:00 +21°C° 0 mm 5 mps 745 mmHg 46%
    16:00 +21°C° 0 mm 6 mps 745 mmHg 42%
    17:00 +20°C° 0 mm 5 mps 745 mmHg 44%
    18:00 +17°C° 0 mm 5 mps 745 mmHg 47%
    19:00 +17°C° 0 mm 4 mps 746 mmHg 49%
    20:00 +15°C° 0 mm 4 mps 746 mmHg 51%
    21:00 +14°C° 0 mm 3 mps 746 mmHg 52%
    22:00 +12°C° 0 mm 3 mps 747 mmHg 53%
    23:00 +12°C° 0 mm 3 mps 747 mmHg 54%

    1 June, Saturday

    Time Temperature Precipitation Wind Pressure Humidity
    00:00 +12°C° 0 mm 2 mps 747 mmHg 54%
    01:00 +12°C° 0 mm 2 mps 747 mmHg 55%
    02:00 +12°C° 0 mm 2 mps 747 mmHg 53%
    03:00 +11°C° 0 mm 1 mps 747 mmHg 52%
    04:00 +11°C° 0 mm 1 mps 747 mmHg 51%
    05:00 +12°C° 0 mm 1 mps 747 mmHg 50%
    06:00 +12°C° 0 mm 0 mps 747 mmHg 48%
    07:00 +13°C° 0 mm 0 mps 747 mmHg 46%
    08:00 +15°C° 0 mm 0 mps 747 mmHg 43%
    09:00 +19°C° 0 mm 1 mps 747 mmHg 40%
    10:00 +21°C° 0 mm 1 mps 747 mmHg 37%
    11:00 +23°C° 0 mm 1 mps 747 mmHg 39%
    12:00 +24°C° 0 mm 2 mps 747 mmHg 41%
    13:00 +25°C° 0 mm 2 mps 746 mmHg 43%
    14:00 +25°C° 0 mm 3 mps 746 mmHg 47%
    15:00 +25°C° 0 mm 3 mps 745 mmHg 50%
    16:00 +25°C° 0 mm 3 mps 745 mmHg 54%
    17:00 +24°C° 0.5 mm 3 mps 744 mmHg 60%
    18:00 +22°C° 0.5 mm 3 mps 744 mmHg 67%
    19:00 +21°C° 0.5 mm 3 mps 744 mmHg 73%
    20:00 +20°C° 1.5 mm 3 mps 744 mmHg 77%
    21:00 +20°C° 1.5 mm 3 mps 743 mmHg 81%
    22:00 +19°C° 1.5 mm 3 mps 743 mmHg 85%
    23:00 +19°C° 0.1 mm 3 mps 743 mmHg 85%
    Show more